Time,TemperatureF,DewpointF,PressureIn,WindDirection,WindDirectionDegrees,WindSpeedMPH,WindSpeedGustMPH,Humidity,HourlyPrecipIn,Conditions,Clouds,dailyrainin,SoftwareType,DateUTC
2013-02-20 00:00:00,62.0,55.0,-100.00,East,84,20.0,-999.0,79,0.00,,,-99.99,,2013-02-20 06:00:00,
2013-02-20 00:21:00,62.0,55.0,-100.00,East,84,20.0,-999.0,79,0.00,,,-99.99,,2013-02-20 06:21:00,
2013-02-20 00:32:00,62.0,55.0,-100.00,East,84,20.0,-999.0,79,0.00,,,-99.99,,2013-02-20 06:32:00,
2013-02-20 00:42:00,62.0,55.0,-100.00,East,84,20.0,-999.0,79,0.00,,,-99.99,,2013-02-20 06:42:00,
2013-02-20 00:52:00,62.0,55.0,-100.00,East,84,20.0,-999.0,79,0.00,,,-99.99,,2013-02-20 06:52:00,
2013-02-20 01:00:00,63.0,56.0,-100.00,East,84,17.0,-999.0,80,0.00,,,-99.99,,2013-02-20 07:00:00,
2013-02-20 01:21:00,63.0,56.0,-100.00,East,84,17.0,-999.0,80,0.00,,,-99.99,,2013-02-20 07:21:00,
2013-02-20 01:31:00,63.0,56.0,-100.00,East,84,17.0,-999.0,80,0.00,,,-99.99,,2013-02-20 07:31:00,
2013-02-20 01:42:00,63.0,56.0,-100.00,East,84,17.0,-999.0,80,0.00,,,-99.99,,2013-02-20 07:42:00,
2013-02-20 01:52:00,63.0,56.0,-100.00,East,84,17.0,-999.0,80,0.00,,,-99.99,,2013-02-20 07:52:00,
2013-02-20 02:00:00,63.0,57.0,-100.00,East,90,11.0,-999.0,83,0.00,,,-99.99,,2013-02-20 08:00:00,
2013-02-20 02:21:00,63.0,57.0,-100.00,East,90,11.0,-999.0,83,0.00,,,-99.99,,2013-02-20 08:21:00,
2013-02-20 02:31:00,63.0,57.0,-100.00,East,90,11.0,-999.0,83,0.00,,,-99.99,,2013-02-20 08:31:00,
2013-02-20 02:41:00,63.0,57.0,-100.00,East,90,11.0,-999.0,83,0.00,,,-99.99,,2013-02-20 08:41:00,
2013-02-20 02:52:00,63.0,57.0,-100.00,East,90,11.0,-999.0,83,0.00,,,-99.99,,2013-02-20 08:52:00,
2013-02-20 03:00:00,63.0,58.0,-100.00,East,83,8.0,-999.0,84,0.00,,,-99.99,,2013-02-20 09:00:00,
2013-02-20 03:21:00,63.0,58.0,-100.00,East,83,8.0,-999.0,84,0.00,,,-99.99,,2013-02-20 09:21:00,
2013-02-20 03:31:00,63.0,58.0,-100.00,East,83,8.0,-999.0,84,0.00,,,-99.99,,2013-02-20 09:31:00,
2013-02-20 03:42:00,63.0,58.0,-100.00,East,83,8.0,-999.0,84,0.00,,,-99.99,,2013-02-20 09:42:00,
2013-02-20 03:52:00,63.0,58.0,-100.00,East,83,8.0,-999.0,84,0.00,,,-99.99,,2013-02-20 09:52:00,
2013-02-20 04:00:00,61.0,57.0,-100.00,NNE,17,8.0,-999.0,89,0.00,,,-99.99,,2013-02-20 10:00:00,
2013-02-20 04:22:00,61.0,57.0,-100.00,NNE,17,8.0,-999.0,89,0.00,,,-99.99,,2013-02-20 10:22:00,
2013-02-20 04:32:00,61.0,57.0,-100.00,NNE,17,8.0,-999.0,89,0.00,,,-99.99,,2013-02-20 10:32:00,
2013-02-20 04:42:00,61.0,57.0,-100.00,NNE,17,8.0,-999.0,89,0.00,,,-99.99,,2013-02-20 10:42:00,
2013-02-20 04:52:00,61.0,57.0,-100.00,NNE,17,8.0,-999.0,89,0.00,,,-99.99,,2013-02-20 10:52:00,
2013-02-20 05:00:00,62.0,58.0,-100.00,ENE,61,11.0,-999.0,86,0.00,,,-99.99,,2013-02-20 11:00:00,
2013-02-20 05:21:00,62.0,58.0,-100.00,ENE,61,11.0,-999.0,86,0.00,,,-99.99,,2013-02-20 11:21:00,
2013-02-20 05:32:00,62.0,58.0,-100.00,ENE,61,11.0,-999.0,86,0.00,,,-99.99,,2013-02-20 11:32:00,
2013-02-20 05:42:00,62.0,58.0,-100.00,ENE,61,11.0,-999.0,86,0.00,,,-99.99,,2013-02-20 11:42:00,
2013-02-20 05:52:00,62.0,58.0,-100.00,ENE,61,11.0,-999.0,86,0.00,,,-99.99,,2013-02-20 11:52:00,
2013-02-20 06:00:00,63.0,59.0,-100.00,ENE,75,12.0,-999.0,86,0.00,,,-99.99,,2013-02-20 12:00:00,
2013-02-20 06:21:00,63.0,59.0,-100.00,ENE,75,12.0,-999.0,86,0.00,,,-99.99,,2013-02-20 12:21:00,
2013-02-20 06:32:00,63.0,59.0,-100.00,ENE,75,12.0,-999.0,86,0.00,,,-99.99,,2013-02-20 12:32:00,
2013-02-20 06:42:00,63.0,59.0,-100.00,ENE,75,12.0,-999.0,86,0.00,,,-99.99,,2013-02-20 12:42:00,
2013-02-20 06:53:00,63.0,59.0,-100.00,ENE,75,12.0,-999.0,86,0.00,,,-99.99,,2013-02-20 12:53:00,
2013-02-20 07:00:00,64.0,61.0,-100.00,East,82,16.0,-999.0,88,0.00,,,-99.99,,2013-02-20 13:00:00,
2013-02-20 07:22:00,64.0,61.0,-100.00,East,82,16.0,-999.0,88,0.00,,,-99.99,,2013-02-20 13:22:00,
2013-02-20 07:32:00,64.0,61.0,-100.00,East,82,16.0,-999.0,88,0.00,,,-99.99,,2013-02-20 13:32:00,
2013-02-20 07:42:00,64.0,61.0,-100.00,East,82,16.0,-999.0,88,0.00,,,-99.99,,2013-02-20 13:42:00,
2013-02-20 07:52:00,64.0,61.0,-100.00,East,82,16.0,-999.0,88,0.00,,,-99.99,,2013-02-20 13:52:00,
2013-02-20 08:00:00,65.0,61.0,-100.00,East,94,16.0,-999.0,90,0.00,,,-99.99,,2013-02-20 14:00:00,
2013-02-20 08:21:00,65.0,61.0,-100.00,East,94,16.0,-999.0,90,0.00,,,-99.99,,2013-02-20 14:21:00,
2013-02-20 08:32:00,65.0,61.0,-100.00,East,94,16.0,-999.0,90,0.00,,,-99.99,,2013-02-20 14:32:00,
2013-02-20 08:42:00,65.0,61.0,-100.00,East,94,16.0,-999.0,90,0.00,,,-99.99,,2013-02-20 14:42:00,
2013-02-20 08:52:00,65.0,61.0,-100.00,East,94,16.0,-999.0,90,0.00,,,-99.99,,2013-02-20 14:52:00,
2013-02-20 09:00:00,65.0,62.0,-100.00,ESE,105,16.0,-999.0,91,0.00,,,-99.99,,2013-02-20 15:00:00,
2013-02-20 09:22:00,65.0,62.0,-100.00,ESE,105,16.0,-999.0,91,0.00,,,-99.99,,2013-02-20 15:22:00,
2013-02-20 09:32:00,65.0,62.0,-100.00,ESE,105,16.0,-999.0,91,0.00,,,-99.99,,2013-02-20 15:32:00,
2013-02-20 09:42:00,65.0,62.0,-100.00,ESE,105,16.0,-999.0,91,0.00,,,-99.99,,2013-02-20 15:42:00,
2013-02-20 09:52:00,65.0,62.0,-100.00,ESE,105,16.0,-999.0,91,0.00,,,-99.99,,2013-02-20 15:52:00,
2013-02-20 10:00:00,65.0,64.0,-100.00,ESE,118,15.0,-999.0,94,0.00,,,-99.99,,2013-02-20 16:00:00,
2013-02-20 10:21:00,65.0,64.0,-100.00,ESE,118,15.0,-999.0,94,0.00,,,-99.99,,2013-02-20 16:21:00,
2013-02-20 10:32:00,65.0,64.0,-100.00,ESE,118,15.0,-999.0,94,0.00,,,-99.99,,2013-02-20 16:32:00,
2013-02-20 10:42:00,65.0,64.0,-100.00,ESE,118,15.0,-999.0,94,0.00,,,-99.99,,2013-02-20 16:42:00,
2013-02-20 10:52:00,65.0,64.0,-100.00,ESE,118,15.0,-999.0,94,0.00,,,-99.99,,2013-02-20 16:52:00,
2013-02-20 11:00:00,66.0,-99.9,-100.00,ESE,116,19.0,-999.0,101,0.00,,,-99.99,,2013-02-20 17:00:00,
2013-02-20 11:22:00,66.0,-99.9,-100.00,ESE,116,19.0,-999.0,101,0.00,,,-99.99,,2013-02-20 17:22:00,
2013-02-20 11:32:00,66.0,-99.9,-100.00,ESE,116,19.0,-999.0,101,0.00,,,-99.99,,2013-02-20 17:32:00,
2013-02-20 11:42:00,66.0,-99.9,-100.00,ESE,116,19.0,-999.0,101,0.00,,,-99.99,,2013-02-20 17:42:00,
2013-02-20 11:52:00,66.0,-99.9,-100.00,ESE,116,19.0,-999.0,101,0.00,,,-99.99,,2013-02-20 17:52:00,
2013-02-20 12:00:00,66.0,-99.9,-100.00,ESE,115,12.0,-999.0,104,0.00,,,-99.99,,2013-02-20 18:00:00,
2013-02-20 12:22:00,66.0,-99.9,-100.00,ESE,115,12.0,-999.0,104,0.00,,,-99.99,,2013-02-20 18:22:00,
2013-02-20 12:32:00,66.0,-99.9,-100.00,ESE,115,12.0,-999.0,104,0.00,,,-99.99,,2013-02-20 18:32:00,
2013-02-20 12:42:00,66.0,-99.9,-100.00,ESE,115,12.0,-999.0,104,0.00,,,-99.99,,2013-02-20 18:42:00,
2013-02-20 12:52:00,66.0,-99.9,-100.00,ESE,115,12.0,-999.0,104,0.00,,,-99.99,,2013-02-20 18:52:00,
2013-02-20 13:00:00,66.0,-99.9,-100.00,ESE,115,15.0,-999.0,106,0.00,,,-99.99,,2013-02-20 19:00:00,
2013-02-20 13:21:00,66.0,-99.9,-100.00,ESE,115,15.0,-999.0,106,0.00,,,-99.99,,2013-02-20 19:21:00,
2013-02-20 13:32:00,66.0,-99.9,-100.00,ESE,115,15.0,-999.0,106,0.00,,,-99.99,,2013-02-20 19:32:00,
2013-02-20 13:42:00,66.0,-99.9,-100.00,ESE,115,15.0,-999.0,106,0.00,,,-99.99,,2013-02-20 19:42:00,
2013-02-20 13:52:00,66.0,-99.9,-100.00,ESE,115,15.0,-999.0,106,0.00,,,-99.99,,2013-02-20 19:52:00,
2013-02-20 14:00:00,68.0,-99.9,-100.00,ESE,116,11.0,-999.0,105,0.00,,,-99.99,,2013-02-20 20:00:00,
2013-02-20 14:21:00,68.0,-99.9,-100.00,ESE,116,11.0,-999.0,105,0.00,,,-99.99,,2013-02-20 20:21:00,
2013-02-20 14:31:00,68.0,-99.9,-100.00,ESE,116,11.0,-999.0,105,0.00,,,-99.99,,2013-02-20 20:31:00,
2013-02-20 14:41:00,68.0,-99.9,-100.00,ESE,116,11.0,-999.0,105,0.00,,,-99.99,,2013-02-20 20:41:00,
2013-02-20 14:52:00,68.0,-99.9,-100.00,ESE,116,11.0,-999.0,105,0.00,,,-99.99,,2013-02-20 20:52:00,
2013-02-20 15:00:00,67.0,-99.9,-100.00,ESE,110,16.0,-999.0,105,0.00,,,-99.99,,2013-02-20 21:00:00,
2013-02-20 15:21:00,67.0,-99.9,-100.00,ESE,110,16.0,-999.0,105,0.00,,,-99.99,,2013-02-20 21:21:00,
2013-02-20 15:32:00,67.0,-99.9,-100.00,ESE,110,16.0,-999.0,105,0.00,,,-99.99,,2013-02-20 21:32:00,
2013-02-20 15:42:00,67.0,-99.9,-100.00,ESE,110,16.0,-999.0,105,0.00,,,-99.99,,2013-02-20 21:42:00,
2013-02-20 15:52:00,67.0,-99.9,-100.00,ESE,110,16.0,-999.0,105,0.00,,,-99.99,,2013-02-20 21:52:00,
2013-02-20 16:00:00,67.0,-99.9,-100.00,ESE,116,16.0,-999.0,106,0.00,,,-99.99,,2013-02-20 22:00:00,
2013-02-20 16:21:00,67.0,-99.9,-100.00,ESE,116,16.0,-999.0,106,0.00,,,-99.99,,2013-02-20 22:21:00,
2013-02-20 16:32:00,67.0,-99.9,-100.00,ESE,116,16.0,-999.0,106,0.00,,,-99.99,,2013-02-20 22:32:00,
2013-02-20 16:43:00,67.0,-99.9,-100.00,ESE,116,16.0,-999.0,106,0.00,,,-99.99,,2013-02-20 22:43:00,
2013-02-20 16:52:00,67.0,-99.9,-100.00,ESE,116,16.0,-999.0,106,0.00,,,-99.99,,2013-02-20 22:52:00,
2013-02-20 17:00:00,67.0,-99.9,-100.00,ESE,116,16.0,-999.0,105,0.00,,,-99.99,,2013-02-20 23:00:00,
2013-02-20 17:22:00,67.0,-99.9,-100.00,ESE,116,16.0,-999.0,105,0.00,,,-99.99,,2013-02-20 23:22:00,
2013-02-20 17:32:00,67.0,-99.9,-100.00,ESE,116,16.0,-999.0,105,0.00,,,-99.99,,2013-02-20 23:32:00,
2013-02-20 17:43:00,67.0,-99.9,-100.00,ESE,116,16.0,-999.0,105,0.00,,,-99.99,,2013-02-20 23:43:00,
2013-02-20 17:53:00,67.0,-99.9,-100.00,ESE,116,16.0,-999.0,105,0.00,,,-99.99,,2013-02-20 23:53:00,
2013-02-20 18:00:00,67.0,-99.9,-100.00,ESE,115,16.0,-999.0,106,0.00,,,-99.99,,2013-02-21 00:00:00,
2013-02-20 18:22:00,67.0,-99.9,-100.00,ESE,115,16.0,-999.0,106,0.00,,,-99.99,,2013-02-21 00:22:00,
2013-02-20 18:32:00,67.0,-99.9,-100.00,ESE,115,16.0,-999.0,106,0.00,,,-99.99,,2013-02-21 00:32:00,
2013-02-20 18:42:00,67.0,-99.9,-100.00,ESE,115,16.0,-999.0,106,0.00,,,-99.99,,2013-02-21 00:42:00,
2013-02-20 18:53:00,67.0,-99.9,-100.00,ESE,115,16.0,-999.0,106,0.00,,,-99.99,,2013-02-21 00:53:00,
2013-02-20 19:00:00,67.0,-99.9,-100.00,ESE,118,15.0,-999.0,107,0.00,,,-99.99,,2013-02-21 01:00:00,
2013-02-20 19:22:00,67.0,-99.9,-100.00,ESE,118,15.0,-999.0,107,0.00,,,-99.99,,2013-02-21 01:22:00,
2013-02-20 19:32:00,67.0,-99.9,-100.00,ESE,118,15.0,-999.0,107,0.00,,,-99.99,,2013-02-21 01:32:00,
2013-02-20 19:42:00,67.0,-99.9,-100.00,ESE,118,15.0,-999.0,107,0.00,,,-99.99,,2013-02-21 01:42:00,
2013-02-20 19:52:00,67.0,-99.9,-100.00,ESE,118,15.0,-999.0,107,0.00,,,-99.99,,2013-02-21 01:52:00,
2013-02-20 20:00:00,67.0,-99.9,-100.00,ESE,114,15.0,-999.0,108,0.00,,,-99.99,,2013-02-21 02:00:00,
2013-02-20 20:22:00,67.0,-99.9,-100.00,ESE,114,15.0,-999.0,108,0.00,,,-99.99,,2013-02-21 02:22:00,
2013-02-20 20:32:00,67.0,-99.9,-100.00,ESE,114,15.0,-999.0,108,0.00,,,-99.99,,2013-02-21 02:32:00,
2013-02-20 20:42:00,67.0,-99.9,-100.00,ESE,114,15.0,-999.0,108,0.00,,,-99.99,,2013-02-21 02:42:00,
2013-02-20 20:52:00,67.0,-99.9,-100.00,ESE,114,15.0,-999.0,108,0.00,,,-99.99,,2013-02-21 02:52:00,
2013-02-20 21:00:00,67.0,-99.9,-100.00,ESE,115,17.0,-999.0,107,0.00,,,-99.99,,2013-02-21 03:00:00,
2013-02-20 21:22:00,67.0,-99.9,-100.00,ESE,115,17.0,-999.0,107,0.00,,,-99.99,,2013-02-21 03:22:00,
2013-02-20 21:32:00,67.0,-99.9,-100.00,ESE,115,17.0,-999.0,107,0.00,,,-99.99,,2013-02-21 03:32:00,
2013-02-20 21:42:00,67.0,-99.9,-100.00,ESE,115,17.0,-999.0,107,0.00,,,-99.99,,2013-02-21 03:42:00,
2013-02-20 21:52:00,67.0,-99.9,-100.00,ESE,115,17.0,-999.0,107,0.00,,,-99.99,,2013-02-21 03:52:00,
2013-02-20 22:00:00,67.0,-99.9,-100.00,ESE,119,18.0,-999.0,108,0.00,,,-99.99,,2013-02-21 04:00:00,
2013-02-20 22:22:00,67.0,-99.9,-100.00,ESE,119,18.0,-999.0,108,0.00,,,-99.99,,2013-02-21 04:22:00,
2013-02-20 22:32:00,67.0,-99.9,-100.00,ESE,119,18.0,-999.0,108,0.00,,,-99.99,,2013-02-21 04:32:00,
2013-02-20 22:42:00,67.0,-99.9,-100.00,ESE,119,18.0,-999.0,108,0.00,,,-99.99,,2013-02-21 04:42:00,
2013-02-20 22:52:00,67.0,-99.9,-100.00,ESE,119,18.0,-999.0,108,0.00,,,-99.99,,2013-02-21 04:52:00,
2013-02-20 23:00:00,67.0,-99.9,-100.00,ESE,116,18.0,-999.0,108,0.00,,,-99.99,,2013-02-21 05:00:00,
2013-02-20 23:22:00,67.0,-99.9,-100.00,ESE,116,18.0,-999.0,108,0.00,,,-99.99,,2013-02-21 05:22:00,
2013-02-20 23:38:00,67.0,-99.9,-100.00,ESE,116,18.0,-999.0,108,0.00,,,-99.99,,2013-02-21 05:38:00,
2013-02-20 23:47:00,67.0,-99.9,-100.00,ESE,116,18.0,-999.0,108,0.00,,,-99.99,,2013-02-21 05:47:00,